Simultaneous Nadir Overpasses (SNOs) Predictions

Prediction of SNOs between AQUA and NOAA-19 Satellite Orbit:

Table of predicted SNOs for the next 14.0 days since TLE Epoch: 5/11/2024
Index Date (AQUA) Time (AQUA) Lat,Lon (AQUA) SZA (AQUA ) Date (NOAA-19) Time (NOAA-19) Lat,Lon (NOAA-19) SZA (NOAA-19 ) Distance(km) Time Diff (sec)
1 05/11/2024 03:29:40 75.77, 124.51 57.71 05/11/2024 03:29:50 75.78, 124.38 57.72 3.91 10
2 05/13/2024 07:19:56 -75.77,-113.01 122.84 05/13/2024 07:19:55 -75.79,-113.06 122.81 3.08 1
3 05/13/2024 08:09:31 76.34, 52.81 57.76 05/13/2024 08:10:35 76.38, 56.36 57.76 93.33 64
4 05/15/2024 11:10:10 75.79, 9.41 56.68 05/15/2024 11:09:48 75.76, 9.42 56.65 3.05 22
5 05/15/2024 11:59:36 -76.02, 176.34 123.09 05/15/2024 12:00:46 -76.08, 177.78 123.05 39.03 70
6 05/17/2024 15:00:17 -75.77, 131.97 123.84 05/17/2024 14:59:51 -75.78, 132.02 123.83 1.80 26
7 05/17/2024 15:49:41 75.83, -60.54 56.22 05/17/2024 15:50:43 75.81, -60.58 56.20 1.86 62
8 05/19/2024 18:50:21 75.74,-105.41 55.67 05/19/2024 18:49:41 75.77,-105.41 55.71 3.81 40
9 05/19/2024 19:39:44 -75.83, 61.98 124.25 05/19/2024 19:40:45 -75.83, 62.02 124.25 1.20 61
10 05/21/2024 22:40:20 -75.75, 17.09 124.76 05/21/2024 22:39:43 -75.74, 17.03 124.76 1.95 37
11 05/21/2024 23:29:44 75.82,-175.46 55.31 05/21/2024 23:30:34 75.81,-175.44 55.30 0.84 50
12 05/24/2024 02:30:16 75.76, 139.62 54.85 05/24/2024 02:29:30 75.76, 139.72 54.86 2.81 46



Historial Predications of SNOs between AQUA and NOAA-19
